STARLINK-1956

decayed
NORAD ID: 47557 Int'l Des: 2021-009 Owner: SPXS Country: US Constellation: starlink
LEOCIRCULAR

关于 STARLINK-1956

正在加载描述...

高度历史

Altitude vs Time

uPlot chart will show altitude changes over time

两行轨道根数

1 47557U 21009K 25031.45055454 .03301356 11970-4 10364-2 0 9992
2 47557 53.0338 10.3208 0005954 104.2238 40.5535 16.25720338221003
Epoch: Jan 31, 2025 • Age: 5217 hours

当前状态

Position data unavailable
发射日期 Feb 4, 2021
运行时间 4.5 years
衰减日期 Jan 31, 2025
类型 internet

技术详情

分类 Payload
质量 260.00 kg
干质量 248.00 kg
总质量 260.00 kg
长度 0.20 m
直径 2.80 m
跨度 9.00 m
形状 Box + pan
制造商 SPXS
平台类型 Starlink
阶段状态 Unknown Transfer Status
所有者/国家 SPXS/US

大型星座

Loading constellations...